Total_Precipitation_Accumulation
1.17 1.19 1.21 1.18 1.14 1.12 1.16 1.16 1.06 0.94 0.82 0.74 0.67 0.65 0.63 0.57 0.55 0.59 0.60 0.64 0.73 0.77 0.73 0.75 0.81 0.88 0.96 1.04 1.17 1.30 1.47 1.61 1.66 1.41 1.17 1.10 1.12 1.16 1.20 1.10 1.02 0.95 0.87
1.02 1.00 1.00 0.93 0.87 0.87 0.86 0.86 0.82 0.82 0.79 0.73 0.69 0.67 0.61 0.54 0.52 0.53 0.52 0.51 0.56 0.61 0.64 0.68 0.67 0.70 0.81 0.89 0.99 1.11 1.23 1.34 1.47 1.43 1.22 1.12 1.11 1.19 1.24 1.22 1.05 0.89 0.81
0.76 0.78 0.81 0.77 0.73 0.75 0.71 0.70 0.73 0.74 0.73 0.69 0.67 0.62 0.57 0.55 0.55 0.54 0.50 0.49 0.47 0.49 0.54 0.60 0.64 0.70 0.79 0.87 0.96 1.00 1.07 1.11 1.27 1.32 1.21 1.15 1.15 1.21 1.30 1.24 1.04 0.98 0.73
0.60 0.59 0.64 0.65 0.64 0.65 0.66 0.64 0.61 0.60 0.61 0.56 0.51 0.52 0.53 0.50 0.45 0.42 0.41 0.43 0.44 0.43 0.44 0.48 0.53 0.61 0.71 0.82 0.88 0.95 1.04 1.13 1.22 1.30 1.28 1.27 1.27 1.26 1.30 1.33 1.14 0.98 0.78
0.55 0.58 0.60 0.62 0.61 0.62 0.65 0.62 0.55 0.49 0.46 0.45 0.43 0.43 0.44 0.39 0.35 0.33 0.34 0.34 0.38 0.41 0.43 0.43 0.42 0.47 0.57 0.64 0.70 0.85 1.05 1.22 1.24 1.29 1.31 1.31 1.31 1.36 1.30 1.21 1.12 0.98 0.81
0.64 0.66 0.65 0.64 0.66 0.65 0.62 0.58 0.53 0.49 0.45 0.42 0.45 0.41 0.34 0.26 0.27 0.29 0.29 0.33 0.39 0.44 0.51 0.49 0.40 0.37 0.41 0.47 0.54 0.65 0.84 1.09 1.24 1.30 1.31 1.29 1.26 1.29 1.26 1.20 1.19 1.17 1.03
0.68 0.66 0.63 0.61 0.62 0.56 0.51 0.54 0.52 0.50 0.46 0.42 0.43 0.40 0.35 0.25 0.20 0.21 0.24 0.30 0.41 0.49 0.55 0.54 0.43 0.36 0.43 0.50 0.52 0.55 0.65 0.82 1.09 1.30 1.37 1.25 1.28 1.34 1.37 1.37 1.27 1.26 1.19
0.64 0.58 0.52 0.53 0.59 0.53 0.51 0.53 0.50 0.50 0.50 0.45 0.41 0.40 0.39 0.24 0.20 0.22 0.25 0.35 0.45 0.46 0.45 0.47 0.52 0.55 0.47 0.47 0.53 0.68 0.83 0.91 0.97 1.03 1.21 1.22 1.23 1.22 1.17 1.21 1.22 1.24 1.14
0.56 0.51 0.45 0.45 0.47 0.47 0.47 0.50 0.52 0.53 0.56 0.48 0.41 0.43 0.43 0.32 0.24 0.26 0.30 0.40 0.46 0.44 0.39 0.38 0.41 0.50 0.48 0.53 0.68 0.91 1.11 1.25 1.09 1.05 1.12 1.26 1.27 1.12 0.95 1.02 1.25 1.35 1.20
0.48 0.43 0.41 0.42 0.42 0.46 0.49 0.51 0.48 0.52 0.58 0.48 0.40 0.41 0.38 0.32 0.24 0.26 0.32 0.38 0.46 0.44 0.45 0.44 0.49 0.51 0.52 0.65 0.80 1.08 1.29 1.39 1.20 1.13 1.25 1.39 1.34 1.21 1.11 1.15 1.35 1.34 1.22
0.34 0.34 0.36 0.38 0.38 0.39 0.48 0.51 0.51 0.50 0.53 0.51 0.46 0.41 0.34 0.24 0.21 0.24 0.28 0.32 0.39 0.46 0.49 0.54 0.58 0.59 0.58 0.69 0.86 1.04 1.25 1.32 1.27 1.23 1.25 1.29 1.31 1.29 1.16 1.14 1.17 1.14 1.14
0.30 0.32 0.34 0.33 0.28 0.30 0.44 0.48 0.48 0.52 0.49 0.49 0.52 0.50 0.38 0.28 0.19 0.16 0.18 0.23 0.31 0.49 0.59 0.61 0.61 0.60 0.62 0.77 0.90 1.11 1.31 1.44 1.34 1.21 1.10 1.06 1.07 1.11 1.07 0.94 0.88 0.85 0.90
0.32 0.37 0.34 0.30 0.29 0.29 0.35 0.39 0.40 0.46 0.45 0.42 0.44 0.42 0.35 0.30 0.21 0.12 0.12 0.16 0.23 0.36 0.51 0.66 0.65 0.60 0.76 1.04 1.22 1.34 1.49 1.56 1.37 1.12 1.02 0.94 0.88 0.85 0.82 0.83 0.78 0.72 0.69
0.38 0.38 0.35 0.36 0.34 0.28 0.27 0.26 0.28 0.31 0.33 0.38 0.38 0.36 0.34 0.31 0.21 0.15 0.17 0.19 0.23 0.28 0.42 0.61 0.74 0.77 0.93 1.22 1.45 1.55 1.60 1.51 1.27 1.06 0.93 0.85 0.79 0.76 0.76 0.74 0.75 0.72 0.73
0.37 0.32 0.30 0.30 0.29 0.28 0.22 0.17 0.16 0.16 0.17 0.24 0.28 0.30 0.31 0.26 0.18 0.18 0.20 0.21 0.24 0.29 0.37 0.55 0.74 0.84 1.05 1.28 1.42 1.42 1.37 1.27 1.18 1.00 0.86 0.80 0.79 0.76 0.75 0.70 0.70 0.65 0.67
0.33 0.31 0.26 0.24 0.22 0.18 0.18 0.17 0.12 0.11 0.11 0.13 0.17 0.18 0.19 0.19 0.16 0.15 0.16 0.21 0.26 0.33 0.40 0.63 0.82 0.92 1.07 1.20 1.27 1.24 1.15 1.06 0.99 0.90 0.83 0.75 0.73 0.71 0.70 0.65 0.59 0.58 0.62
0.23 0.24 0.20 0.16 0.16 0.17 0.18 0.24 0.23 0.16 0.11 0.12 0.13 0.15 0.16 0.15 0.14 0.15 0.16 0.21 0.25 0.31 0.45 0.66 0.83 0.97 1.07 1.09 1.10 1.05 1.00 0.95 0.86 0.79 0.75 0.70 0.65 0.62 0.61 0.55 0.51 0.52 0.51
0.15 0.14 0.13 0.13 0.13 0.16 0.15 0.14 0.19 0.26 0.26 0.21 0.15 0.14 0.14 0.14 0.15 0.16 0.19 0.22 0.31 0.36 0.52 0.68 0.80 0.85 0.91 0.95 0.93 0.92 0.89 0.82 0.75 0.72 0.72 0.70 0.62 0.56 0.50 0.47 0.46 0.44 0.43
0.12 0.12 0.10 0.09 0.09 0.11 0.09 0.08 0.11 0.15 0.21 0.23 0.20 0.16 0.15 0.15 0.18 0.21 0.23 0.28 0.39 0.46 0.54 0.65 0.71 0.74 0.78 0.80 0.79 0.76 0.74 0.71 0.64 0.62 0.64 0.66 0.64 0.56 0.47 0.40 0.36 0.30 0.31
0.09 0.08 0.08 0.07 0.08 0.08 0.08 0.08 0.09 0.11 0.15 0.19 0.22 0.20 0.19 0.28 0.34 0.32 0.28 0.29 0.36 0.44 0.51 0.59 0.61 0.60 0.61 0.62 0.59 0.54 0.55 0.56 0.55 0.56 0.56 0.55 0.54 0.48 0.41 0.35 0.30 0.28 0.27
0.07 0.07 0.06 0.06 0.06 0.06 0.06 0.07 0.08 0.09 0.13 0.17 0.17 0.16 0.23 0.31 0.40 0.38 0.36 0.37 0.40 0.43 0.44 0.47 0.50 0.50 0.46 0.44 0.45 0.45 0.47 0.50 0.50 0.51 0.49 0.48 0.45 0.40 0.33 0.28 0.25 0.23 0.21
0.07 0.07 0.06 0.06 0.05 0.04 0.04 0.05 0.06 0.07 0.09 0.13 0.14 0.14 0.23 0.29 0.37 0.38 0.40 0.42 0.44 0.45 0.43 0.41 0.40 0.42 0.43 0.43 0.42 0.41 0.43 0.44 0.47 0.48 0.46 0.43 0.41 0.35 0.29 0.24 0.22 0.21 0.21
0.06 0.06 0.06 0.06 0.05 0.04 0.04 0.04 0.04 0.05 0.07 0.08 0.11 0.14 0.19 0.29 0.37 0.43 0.47 0.48 0.47 0.44 0.39 0.36 0.38 0.39 0.38 0.36 0.36 0.37 0.37 0.38 0.43 0.46 0.45 0.40 0.35 0.30 0.26 0.23 0.21 0.23 0.22
0.06 0.05 0.05 0.05 0.04 0.03 0.03 0.04 0.04 0.04 0.05 0.07 0.10 0.13 0.18 0.26 0.32 0.41 0.49 0.52 0.54 0.52 0.46 0.41 0.40 0.40 0.37 0.34 0.35 0.35 0.34 0.35 0.35 0.37 0.37 0.33 0.28 0.24 0.22 0.22 0.20 0.20 0.21
0.07 0.06 0.05 0.05 0.04 0.03 0.03 0.03 0.04 0.05 0.05 0.06 0.09 0.13 0.16 0.19 0.25 0.32 0.39 0.45 0.49 0.53 0.53 0.51 0.48 0.42 0.36 0.31 0.28 0.28 0.34 0.34 0.30 0.28 0.33 0.29 0.22 0.20 0.20 0.19 0.19 0.19 0.19
0.06 0.06 0.06 0.05 0.04 0.03 0.03 0.03 0.05 0.05 0.04 0.05 0.08 0.10 0.11 0.14 0.19 0.23 0.26 0.29 0.35 0.41 0.47 0.53 0.55 0.45 0.35 0.29 0.28 0.29 0.27 0.21 0.17 0.17 0.27 0.28 0.22 0.19 0.18 0.18 0.17 0.17 0.19